Glasgow, KY

9:57 AM CDT on September 15, 2019 (GMT -0500)
Glasgow Municipal

Weather History for KGLW - August, 2019

Change the Weather History Date:

Friday, August 23, 2019

  Actual Average Record
Temperature  
Mean Temperature 76 °F -  
Max Temperature 86 °F 85 °F 98 °F (1962)
Min Temperature 65 °F 64 °F 49 °F (1956)
Cooling Degree Days 10    
Growing Degree Days 26 (Base 50)    
Moisture  
Dew Point 66 °F    
Average Humidity 80    
Maximum Humidity 95    
Minimum Humidity 54    
Precipitation  
Precipitation 0.00 in - - ()
Sea Level Pressure  
Sea Level Pressure 30.05 in    
Wind  
Wind Speed 2 mph ()    
Max Wind Speed 12 mph    
Max Gust Speed 17 mph    
Visibility 7.7 miles    
Events Fog    
Averages and records for this station are not official NWS values.
T = Trace of Precipitation, MM = Missing Value Source: Averaged Metar Reports

Daily Weather History Graph

Daily Weather History Graph

Search for Another Location

Airport or City:

Astronomy

Aug. 23, 2019 Rise Set
Actual Time 6:07 AM CDT 7:25 PM CDT
Civil Twilight 5:39 AM CDT 7:52 PM CDT
Nautical Twilight 5:07 AM CDT 8:24 PM CDT
Astronomical Twilight 4:33 AM CDT 8:58 PM CDT
Moon No Moon Rise 1:32 PM CDT (8/23)
Length of Visible Light 14h 12m
Length of Day
13h 18m
Waning Gibbous, 49% of the Moon is Illuminated
Aug 23
Waning Gibbous
Aug 30
New
Sep 5
First Quarter
Sep 13
Full
Sep 21
Last Quarter

Hourly Weather History & Observations

Time (CDT) Temp. Heat Index Dew Point Humidity Pressure Visibility Wind Dir Wind Speed Gust Speed Precip Events Conditions
12:15 AM 69.6 °F - 67.3 °F 92% 30.00 in 10.0 mi Calm Calm - N/A   Mostly Cloudy
12:35 AM 69.8 °F - 67.5 °F 92% 30.01 in 10.0 mi Calm Calm - N/A   Overcast
12:55 AM 70.2 °F - 68.0 °F 93% 30.01 in 10.0 mi Calm Calm - N/A   Overcast
1:15 AM 70.0 °F - 68.0 °F 93% 30.01 in 10.0 mi Calm Calm - N/A   Overcast
1:35 AM 70.0 °F - 68.0 °F 93% 30.01 in 7.0 mi WSW 3.5 mph - N/A   Overcast
1:55 AM 70.0 °F - 68.2 °F 94% 30.01 in 2.5 mi Calm Calm - N/A   Overcast
2:15 AM 70.0 °F - 68.2 °F 94% 30.01 in 3.0 mi West 3.5 mph - N/A   Overcast
2:35 AM 70.0 °F - 68.4 °F 95% 30.00 in 5.0 mi Calm Calm - N/A   Overcast
2:55 AM 70.2 °F - 68.7 °F 95% 30.00 in 3.0 mi Calm Calm - N/A   Overcast
3:15 AM 70.5 °F - 68.9 °F 95% 30.00 in 2.5 mi WSW 3.5 mph - N/A   Overcast
3:35 AM 70.7 °F - 68.9 °F 94% 30.00 in 5.0 mi SW 3.5 mph - N/A   Overcast
3:55 AM 70.2 °F - 68.4 °F 94% 30.01 in 5.0 mi SSW 3.5 mph - N/A   Overcast
4:15 AM 70.2 °F - 68.4 °F 94% 30.01 in 5.0 mi Calm Calm - N/A   Overcast
4:35 AM 70.3 °F - 68.4 °F 93% 30.01 in 5.0 mi Calm Calm - N/A   Overcast
4:55 AM 70.2 °F - 68.2 °F 93% 30.01 in 4.0 mi Calm Calm - N/A   Overcast
5:15 AM 70.0 °F - 68.0 °F 93% 30.02 in 3.0 mi Calm Calm - N/A   Overcast
5:35 AM 69.8 °F - 68.0 °F 94% 30.03 in 2.0 mi Calm Calm - N/A   Overcast
5:55 AM 69.3 °F - 67.5 °F 94% 30.03 in 1.0 mi Calm Calm - N/A   Overcast
6:15 AM 69.3 °F - 67.6 °F 95% 30.04 in 0.5 mi Calm Calm - N/A Fog Fog
6:35 AM 69.8 °F - 68.0 °F 94% 30.05 in 0.5 mi Calm Calm - N/A Fog Fog
6:55 AM 69.8 °F - 68.2 °F 95% 30.06 in 1.5 mi Calm Calm - N/A   Overcast
7:15 AM 69.8 °F - 68.2 °F 95% 30.06 in 1.8 mi Calm Calm - N/A   Overcast
7:35 AM 70.0 °F - 68.5 °F 95% 30.06 in 2.0 mi Calm Calm - N/A   Overcast
7:55 AM 70.5 °F - 68.7 °F 94% 30.06 in 2.0 mi Calm Calm - N/A   Overcast
8:15 AM 71.6 °F - 68.9 °F 91% 30.06 in 3.0 mi Calm Calm - N/A   Overcast
8:35 AM 72.5 °F - 68.9 °F 88% 30.07 in 3.0 mi Calm Calm - N/A   Overcast
8:55 AM 73.6 °F - 69.3 °F 86% 30.07 in 4.0 mi Calm Calm - N/A   Haze
9:15 AM 75.4 °F - 68.5 °F 79% 30.07 in 7.0 mi Calm Calm - N/A   Overcast
9:35 AM 76.3 °F - 68.7 °F 77% 30.07 in 7.0 mi Calm Calm - N/A   Overcast
9:55 AM 77.5 °F - 68.4 °F 73% 30.07 in 10.0 mi Calm Calm - N/A   Mostly Cloudy
10:15 AM 78.8 °F - 68.2 °F 70% 30.07 in 10.0 mi Calm Calm - N/A   Mostly Cloudy
10:35 AM 80.1 °F 82.9 °F 69.1 °F 69% 30.05 in 10.0 mi Calm Calm - N/A   Mostly Cloudy
10:55 AM 81.5 °F 84.2 °F 67.8 °F 63% 30.06 in 10.0 mi Calm Calm - N/A   Mostly Cloudy
11:15 AM 79.9 °F - 68.4 °F 68% 30.07 in 10.0 mi Calm Calm - N/A   Mostly Cloudy
11:35 AM 80.2 °F 83.0 °F 68.2 °F 67% 30.05 in 10.0 mi Calm Calm - N/A   Mostly Cloudy
11:55 AM 83.1 °F 86.1 °F 68.0 °F 60% 30.05 in 10.0 mi Calm Calm - N/A   Clear
12:15 PM 81.7 °F 84.3 °F 67.6 °F 62% 30.05 in 10.0 mi Calm Calm - N/A   Mostly Cloudy
12:35 PM 82.6 °F 85.5 °F 68.0 °F 61% 30.05 in 10.0 mi Calm Calm - N/A   Mostly Cloudy
12:55 PM 83.3 °F 87.1 °F 69.6 °F 63% 30.04 in 10.0 mi North 3.5 mph - N/A   Scattered Clouds
1:15 PM 83.5 °F 86.2 °F 67.5 °F 58% 30.04 in 10.0 mi Calm Calm - N/A   Scattered Clouds
1:35 PM 83.5 °F 86.4 °F 67.6 °F 59% 30.04 in 10.0 mi North 4.6 mph - N/A   Mostly Cloudy
1:55 PM 81.9 °F 85.0 °F 68.5 °F 64% 30.04 in 10.0 mi NNW 4.6 mph - N/A   Mostly Cloudy
2:15 PM 82.8 °F 86.2 °F 69.1 °F 63% 30.03 in 10.0 mi NNE 3.5 mph - N/A   Scattered Clouds
2:35 PM 86.2 °F 89.4 °F 67.8 °F 54% 30.02 in 10.0 mi Calm Calm - N/A   Scattered Clouds
2:55 PM 84.6 °F 87.6 °F 67.8 °F 57% 30.02 in 10.0 mi NNE 9.2 mph - N/A   Mostly Cloudy
3:15 PM 78.8 °F - 69.3 °F 72% 30.02 in 10.0 mi NE 10.4 mph - N/A   Overcast
3:35 PM 79.0 °F - 69.8 °F 73% 30.03 in 10.0 mi North 11.5 mph - N/A   Overcast
3:55 PM 79.7 °F - 69.4 °F 71% 30.03 in 10.0 mi NNE 5.8 mph - N/A   Mostly Cloudy
4:15 PM 79.5 °F - 68.9 °F 70% 30.03 in 10.0 mi NNE 8.1 mph 17.3 mph N/A   Mostly Cloudy
4:35 PM 77.0 °F - 68.4 °F 75% 30.03 in 10.0 mi North 10.4 mph - N/A   Mostly Cloudy
4:55 PM 76.5 °F - 68.0 °F 75% 30.03 in 10.0 mi North 11.5 mph 16.1 mph N/A   Overcast
5:15 PM 76.1 °F - 67.3 °F 74% 30.03 in 10.0 mi NE 9.2 mph 17.3 mph N/A   Overcast
5:35 PM 75.2 °F - 67.1 °F 76% 30.04 in 10.0 mi NNE 9.2 mph - N/A   Overcast
5:55 PM 74.3 °F - 66.2 °F 76% 30.04 in 10.0 mi NE 9.2 mph 16.1 mph N/A   Overcast
6:15 PM 73.8 °F - 65.3 °F 75% 30.04 in 10.0 mi NNE 8.1 mph - N/A   Mostly Cloudy
6:35 PM 73.6 °F - 64.8 °F 74% 30.05 in 10.0 mi NE 10.4 mph - N/A   Scattered Clouds
6:55 PM 71.6 °F - 64.6 °F 78% 30.06 in 10.0 mi NE 3.5 mph - N/A   Scattered Clouds
7:15 PM 71.1 °F - 64.4 °F 79% 30.06 in 10.0 mi NE 5.8 mph - N/A   Mostly Cloudy
7:35 PM 70.2 °F - 63.5 °F 79% 30.06 in 10.0 mi NE 9.2 mph - N/A   Scattered Clouds
7:55 PM 69.3 °F - 62.6 °F 79% 30.06 in 10.0 mi NE 5.8 mph - N/A   Clear
8:15 PM 68.7 °F - 62.6 °F 81% 30.06 in 10.0 mi NE 9.2 mph - N/A   Clear
8:35 PM 68.2 °F - 62.2 °F 81% 30.07 in 10.0 mi NE 8.1 mph - N/A   Clear
8:55 PM 68.0 °F - 61.5 °F 80% 30.07 in 10.0 mi NE 5.8 mph - N/A   Clear
9:15 PM 67.5 °F - 62.1 °F 83% 30.08 in 10.0 mi NE 6.9 mph - N/A   Clear
9:35 PM 67.1 °F - 61.5 °F 82% 30.09 in 10.0 mi NE 9.2 mph - N/A   Clear
9:55 PM 67.1 °F - 59.9 °F 78% 30.10 in 10.0 mi ENE 6.9 mph - N/A   Clear
10:15 PM 66.6 °F - 59.0 °F 77% 30.10 in 10.0 mi NE 6.9 mph - N/A   Clear
10:35 PM 66.2 °F - 58.1 °F 75% 30.10 in 10.0 mi NE 5.8 mph - N/A   Clear
10:55 PM 65.7 °F - 57.6 °F 75% 30.10 in 10.0 mi NE 6.9 mph - N/A   Clear
11:15 PM 65.7 °F - 57.2 °F 74% 30.11 in 10.0 mi NE 4.6 mph - N/A   Clear
11:35 PM 65.8 °F - 56.3 °F 71% 30.11 in 10.0 mi NE 5.8 mph - N/A   Clear
11:55 PM 66.2 °F - 56.1 °F 70% 30.10 in 10.0 mi NE 9.2 mph - N/A   Mostly Cloudy